User: anonymous   Login
Location: Strawberry
(45.6646°N, 111.9596°W)
Time: 12:22:21
(UTC+00:00)
Language:

Tiros 1 despin weight - Orbit

View from above orbital plane
View from above orbital plane
View from above satellite
View from above satellite

Ground track
Ground track

The orbit data is extracted from the following two-line orbital elements,

1 00115U 60002D   22277.50039286  .00003668  00000-0  45031-3 0  9997
2 00115  48.1646 197.4517 0034176 347.9904  12.0191 14.84687776316427
Epoch (UTC): 04 October 2022 12:00:33
Eccentricity: 0.0034176
inclination: 48.1646°
perigee height: 590 km
apogee height: 638 km
right ascension of ascending node: 197.4517°
argument of perigee: 347.9904°
revolutions per day: 14.84687776
mean anomaly at epoch: 12.0191°
orbit number at epoch: 31642

The dashed part of the orbit path shows where the satellite is in the earth's shadow,  

DLR